Orland, Norway

4:07 AM CEST on June 19, 2018 (GMT +0200)
Orland Air Base

Weather History for ENOL - March, 2013

Change the Weather History Date:

Wednesday, March 13, 2013

  Actual Average Record
Temperature  
Mean Temperature 18 °F -  
Max Temperature 29 °F 40 °F 54 °F (2015)
Min Temperature 7 °F 31 °F 7 °F (2013)
Degree Days  
Heating Degree Days 47    
Moisture  
Dew Point 16 °F    
Average Humidity 83    
Maximum Humidity 100    
Minimum Humidity 51    
Precipitation  
Precipitation 0.03 in 0.08 in - ()
Sea Level Pressure  
Sea Level Pressure 29.75 in    
Wind  
Wind Speed 10 mph ()    
Max Wind Speed 29 mph    
Max Gust Speed 32 mph    
Visibility 5.9 miles    
Events Snow    
Averages and records for this station are not official NWS values.
T = Trace of Precipitation, MM = Missing Value Source: Averaged Metar Reports

Daily Weather History Graph

Daily Weather History Graph

Search for Another Location

Airport or City:

Astronomy

Mar. 13, 2013 Rise Set
Actual Time 6:46 AM CET 6:16 PM CET
Civil Twilight 6:00 AM CET 7:03 PM CET
Nautical Twilight 5:04 AM CET 7:59 PM CET
Astronomical Twilight 4:04 AM CET 9:00 PM CET
Moon 6:33 AM CET (3/13) 9:14 PM CET (3/13)
Length of Visible Light 13h 03m
Length of Day
11h 30m
Waxing Crescent, 3% of the Moon is Illuminated
Mar 13
Waxing Crescent
Mar 19
First Quarter
Mar 27
Full
Apr 3
Last Quarter
Apr 10
New

Hourly Weather History & Observations

Time (CET) Temp. Windchill Dew Point Humidity Pressure Visibility Wind Dir Wind Speed Gust Speed Precip Events Conditions
12:20 AM 10.4 °F -2.4 °F 3.2 °F 73% 29.83 in 6.2 mi ENE 9.2 mph - N/A   Partly Cloudy
12:50 AM 8.6 °F -4.7 °F 5.0 °F 85% 29.83 in 6.2 mi ENE 9.2 mph - N/A   Partly Cloudy
1:00 AM 10 °F - 6 °F 74% 29.84 in 37 mi ENE 8.9 mph - -   Partly Cloudy
1:50 AM 8.6 °F -3.7 °F 3.2 °F 79% 29.83 in 6.2 mi ENE 8.1 mph - N/A   Partly Cloudy
2:50 AM 10.4 °F 0.8 °F 6.8 °F 85% 29.83 in 6.2 mi East 5.8 mph - N/A   Partly Cloudy
3:50 AM 8.6 °F -2.6 °F 6.8 °F 92% 29.80 in 6.2 mi East 6.9 mph - N/A   Partly Cloudy
4:50 AM 8.6 °F -2.6 °F 5.0 °F 85% 29.80 in 6.2 mi East 6.9 mph - N/A   Partly Cloudy
5:50 AM 12.2 °F 0.7 °F 8.6 °F 85% 29.80 in 6.2 mi East 8.1 mph - N/A   Scattered Clouds
6:20 AM 17.6 °F 6.4 °F 15.8 °F 93% 29.80 in 6.2 mi SE 9.2 mph - N/A   Mostly Cloudy
6:50 AM 17.6 °F 4.3 °F 15.8 °F 93% 29.80 in 6.2 mi SE 12.7 mph - N/A   Mostly Cloudy
7:00 AM 18 °F - 16 °F 90% 29.81 in 37 mi SE 11.2 mph - -   Partly Cloudy
7:20 AM 17.6 °F 5.7 °F 15.8 °F 93% 29.80 in 6.2 mi SE 10.4 mph - N/A   Mostly Cloudy
7:50 AM 19.4 °F 7.9 °F 15.8 °F 86% 29.80 in 6.2 mi SE 10.4 mph - N/A   Mostly Cloudy
8:20 AM 21.2 °F 10.1 °F 15.8 °F 80% 29.77 in 6.2 mi SE 10.4 mph - N/A   Mostly Cloudy
8:50 AM 21.2 °F 10.9 °F 15.8 °F 80% 29.77 in 6.2 mi SE 9.2 mph - N/A   Mostly Cloudy
9:20 AM 21.2 °F 10.1 °F 15.8 °F 80% 29.77 in 6.2 mi SE 10.4 mph - N/A   Scattered Clouds
9:50 AM 23.0 °F 13.1 °F 14.0 °F 68% 29.77 in 6.2 mi SE 9.2 mph - N/A   Scattered Clouds
10:20 AM 23.0 °F 12.4 °F 14.0 °F 68% 29.77 in 6.2 mi SSE 10.4 mph - N/A   Partly Cloudy
10:50 AM 24.8 °F 16.1 °F 12.2 °F 59% 29.77 in 6.2 mi SE 8.1 mph - N/A   Partly Cloudy
11:20 AM 26.6 °F 16.2 °F 10.4 °F 51% 29.77 in 6.2 mi SW 11.5 mph - N/A   Scattered Clouds
11:50 AM 26.6 °F 15.7 °F 14.0 °F 59% 29.74 in 6.2 mi SW 12.7 mph - N/A   Mostly Cloudy
12:20 PM 26.6 °F 14.7 °F 14.0 °F 59% 29.74 in 6.2 mi SW 15.0 mph - N/A   Mostly Cloudy
12:50 PM 26.6 °F 13.8 °F 19.4 °F 74% 29.74 in 6.2 mi SW 17.3 mph - N/A Snow Light Snow Showers
1:00 PM 27 °F - 21 °F 69% 29.75 in 19 mi SW 17.9 mph - - Snow Light Snow Showers
1:20 PM 28.4 °F 14.7 °F 19.4 °F 69% 29.74 in 6.2 mi SW 21.9 mph - N/A   Mostly Cloudy
1:50 PM 28.4 °F 14.7 °F 17.6 °F 64% 29.71 in 6.2 mi WSW 21.9 mph - N/A   Mostly Cloudy
2:20 PM 28.4 °F 14.1 °F 19.4 °F 69% 29.71 in 6.2 mi WSW 24.2 mph - N/A Snow Light Snow Showers
2:50 PM 28.4 °F 13.0 °F 23.0 °F 80% 29.68 in 0.3 mi WSW 28.8 mph - N/A Snow Snow Showers
3:20 PM 28.4 °F 13.3 °F 24.8 °F 86% 29.68 in 0.3 mi WSW 27.6 mph - N/A Snow Snow Showers
3:50 PM 28.4 °F 13.3 °F 26.6 °F 93% 29.68 in 0.3 mi WSW 27.6 mph - N/A Snow Snow Showers
4:20 PM 28.4 °F 15.4 °F 26.6 °F 93% 29.68 in 0.4 mi West 19.6 mph 32.2 mph N/A Snow Snow Showers
4:50 PM 28.4 °F 16.2 °F 28.4 °F 100% 29.68 in 6.2 mi West 17.3 mph - N/A   Mostly Cloudy
5:20 PM 30.2 °F 19.8 °F 26.6 °F 86% 29.68 in 6.2 mi NNW 13.8 mph 27.6 mph N/A   Mostly Cloudy
5:50 PM 26.6 °F 16.2 °F 24.8 °F 93% 29.68 in 0.6 mi North 11.5 mph - N/A Snow Snow Showers
6:20 PM 26.6 °F 20.0 °F 24.8 °F 93% 29.68 in 6.2 mi NW 5.8 mph - N/A   Mostly Cloudy
6:50 PM 24.8 °F 19.1 °F 23.0 °F 93% 29.68 in 6.2 mi West 4.6 mph - N/A   Mostly Cloudy
7:00 PM 26 °F - 26 °F 97% 29.71 in 9 mi South 4.5 mph - - Snow Light Snow Showers
7:20 PM 26.6 °F 21.2 °F 24.8 °F 93% 29.71 in 6.2 mi East 4.6 mph - N/A   Mostly Cloudy
7:50 PM 23.0 °F 17.0 °F 21.2 °F 93% 29.71 in 6.2 mi East 4.6 mph - N/A   Scattered Clouds
8:20 PM 21.2 °F 14.9 °F 19.4 °F 93% 29.71 in 6.2 mi East 4.6 mph - N/A   Scattered Clouds
8:50 PM 19.4 °F 11.5 °F 15.8 °F 86% 29.74 in 6.2 mi East 5.8 mph - N/A   Partly Cloudy
9:20 PM 21.2 °F 14.9 °F 19.4 °F 93% 29.74 in 6.2 mi ENE 4.6 mph - N/A   Scattered Clouds
9:50 PM 19.4 °F - 17.6 °F 93% 29.74 in 6.2 mi East 2.3 mph - N/A   Partly Cloudy
10:20 PM 17.6 °F 12.3 °F 15.8 °F 93% 29.74 in 6.2 mi ESE 3.5 mph - N/A   Partly Cloudy
10:50 PM 17.6 °F 12.3 °F 15.8 °F 93% 29.77 in 6.2 mi East 3.5 mph - N/A   Partly Cloudy
11:20 PM 15.8 °F 7.2 °F 14.0 °F 93% 29.77 in 6.2 mi East 5.8 mph - N/A   Partly Cloudy
11:50 PM 14.0 °F 3.9 °F 10.4 °F 86% 29.77 in 6.2 mi East 6.9 mph - N/A   Partly Cloudy